Home   Weather   Winston-Salem   Past weeks

Flag for USA Past Weather in Winston-Salem, North Carolina, USA — Yesterday and Last 2 Weeks

Now
33 °F

Clear.


Feels Like: 33 °F
Forecast: 20 / 45 °F
Wind: No wind

Location: Smith Reynolds Airport

Current Time: Dec 10, 2016 at 7:25:56 pm

Latest Report: Dec 10, 2016 at 6:54 pm


Visibility: 10 mi

Pressure: 30.49 "Hg

Humidity: 41%

Dew Point: 12 °F

Location of Winston-SalemLocation

Past Weather in Winston-Salem — Graph

°F

Winston-Salem Temperature Yesterday

Maximum temperature yesterday: 39 °F (at 2:54 pm)
Minimum temperature yesterday: 26 °F (at 11:54 pm)
Average temperature yesterday: 32 °F

High & Low Weather Summary for the Past Weeks

 TemperatureHumidityPressure
High71 °F (Nov 30, 12:54 pm)97% (Dec 6, 8:54 pm)30.57 "Hg (Dec 6, 8:54 pm)
Low20 °F (Dec 10, 7:54 am)23% (Dec 8, 7:54 pm)29.67 "Hg (Nov 30, 9:54 pm)
Average47 °F61%30.10 "Hg
* Reported Nov 25 5:54 pm — Dec 10 5:54 pm, Winston-Salem, Weather by CustomWeather, © 2016

Note: Actual official high and low records may vary slightly from our data, if they occured in-between our weather recording intervals... More about our weather records

Advertising

Winston-Salem Weather History for the Previous 24 Hours

Scroll right to see more
 ConditionsComfort  
Time TempWeatherWind HumidityBarometerVisibility
5:54 pm
Sat, Dec 10
37 °FClear.No wind33%30.47 "Hg10 mi
4:54 pm39 °FSunny.No wind29%30.46 "Hg10 mi
3:54 pm40 °FSunny.5 mph28%30.47 "Hg10 mi
2:54 pm41 °FSunny.6 mph26%30.46 "Hg10 mi
1:54 pm39 °FSunny.5 mph29%30.47 "Hg10 mi
12:54 pm38 °FSunny.8 mph29%30.50 "Hg10 mi
11:54 am35 °FSunny.3 mph35%30.53 "Hg10 mi
10:54 am33 °FSunny.5 mph40%30.56 "Hg10 mi
9:54 am31 °FSunny.6 mph45%30.57 "Hg10 mi
8:54 am27 °FSunny.No wind58%30.57 "Hg10 mi
7:54 am20 °FSunny.No wind74%30.56 "Hg10 mi
6:54 am21 °FClear.No wind65%30.54 "Hg10 mi
5:54 am23 °FClear.No wind60%30.53 "Hg10 mi
4:54 am23 °FClear.3 mph60%30.51 "Hg10 mi
3:54 am24 °FClear.7 mph57%30.50 "Hg10 mi
2:54 am23 °FClear.7 mph60%30.52 "Hg10 mi
1:54 am23 °FClear.7 mph57%30.51 "Hg10 mi
12:54 am25 °FClear.7 mph55%30.50 "Hg10 mi
11:54 pm
Fri, Dec 9
26 °FClear.5 mph50%30.50 "Hg10 mi
10:54 pm27 °FClear.No wind49%30.50 "Hg10 mi
9:54 pm27 °FClear.8 mph51%30.47 "Hg10 mi
8:54 pm29 °FClear.8 mph47%30.48 "Hg10 mi
7:54 pm29 °FClear.8 mph49%30.47 "Hg10 mi
Weather by CustomWeather, © 2016

See weather overviewHow to use our weather pages